User: anonymous   Login
Location: Bailleul
(50.3375°N, 2.8513°E)
Time: 10:29:26
(UTC+00:00)
Language:

Cosmos 1908 - Orbit

View from above orbital plane
View from above orbital plane
View from above satellite
View from above satellite

Ground track
Ground track

The orbit data is extracted from the following two-line orbital elements,

1 18748U 88001A   21260.28467039  .00000577  00000-0  28765-4 0  9996
2 18748  82.4726 325.5508 0011667 280.0769  79.9147 15.15531501840590
Epoch (UTC): 17 September 2021 06:49:55
Eccentricity: 0.0011667
inclination: 82.4726°
perigee height: 511 km
apogee height: 527 km
right ascension of ascending node: 325.5508°
argument of perigee: 280.0769°
revolutions per day: 15.15531501
mean anomaly at epoch: 79.9147°
orbit number at epoch: 84059

The dashed part of the orbit path shows where the satellite is in the earth's shadow,  

DLR